Погода в Правдином

Россия / Ярославская область     57°57′20″N   37°53′26″E
темп.,
°C
ветер,
м/с
пор.,
м/с
влажн.,
%
обл.,
%
осадки,
мм/ч
давл.,
гПа
погр.,
м
14 мая, пт
пт1400:00+11ю399058 0.0 1015266
03:00+9ю3897100 0.0 1017233
06:00+9ю39945 0.0 1017297
09:00+14ю476813 0.0 1017857
12:00+18ююз4752100 0.0 10171698
15:00+20ю474752 0.0 10162023
18:00+18юв2564100 0.1 1015273
21:00+15юв4986100 0.3 1014238
15 мая, сб
сб1500:00+13ююв41190100 0.0 1013410
03:00+12вюв31197100 0.1 1012324
06:00+13вюв3997100 0.1 1011305
09:00+18ю477758 0.1 1010685
12:00+22ю586342 1.1 10091301
15:00+21ю4672100 3.1 1008936
18:00+19ююз4879100 3.6 1006362
21:00+15ю378940 3.9 1007132
16 мая, вс
вс1600:00+13ююз369399 0.3 1007116
03:00+12ю3109658 0.3 1008216
06:00+13ююз4119534 0.0 1008421
09:00+15ююз588474 0.0 1009665
12:00+18ююз687196 0.1 10091142
15:00+18юз687178 0.1 10091137
18:00+18юз48725 0.0 10091052
21:00+15юз4108713 0.0 1010330
17 мая, пн
пн1700:00+13ююз3109725 0.0 1011273
03:00+11ююз389820 0.0 1013190
06:00+13юз27935 0.0 1013190
09:00+18юз45720 0.0 1014675
12:00+22ююз3457100 0.0 10141237
15:00+23ю3453100 0.0 10141443
18:00+22юв2462100 0.0 1013536
21:00+16вюв388524 0.0 1013133
18 мая, вт
вт1800:00+15вюв31286100 0.1 1012245
03:00+14вюв3119465 0.3 1011250
06:00+15вюв4119374 0.6 1010287
09:00+21юв5127050 0.6 1009537
12:00+25юв61050100 0.0 10081136
15:00+27ююв6104824 0.0 10081845
18:00+24юв51058100 0.0 10071020
21:00+19юв41374100 0.0 1007360